Weather History for KMSS - November, 2010

Change the Weather History Date:

Monday, November 22, 2010

  Actual Average Record
Temperature  
Mean Temperature 41 °F 33 °F  
Max Temperature 52 °F 41 °F 72 °F (1953)
Min Temperature 30 °F 25 °F 0 °F (1972)
Degree Days  
Heating Degree Days 24 32  
Month to date heating degree days 616  
Since 1 July heating degree days 1497  
Cooling Degree Days 0 0  
Month to date cooling degree days 0  
Year to date cooling degree days 363  
Moisture  
Dew Point 37 °F    
Average Humidity 89    
Maximum Humidity 97    
Minimum Humidity 75    
Precipitation  
Precipitation 0.12 in 0.10 in 0.59 in (2007)
Month to date precipitation 2.28  
Year to date precipitation 31.78  
Sea Level Pressure  
Sea Level Pressure 30.06 in    
Wind  
Wind Speed 5 mph (ENE)    
Max Wind Speed 9 mph    
Max Gust Speed -    
Visibility 10 miles    
Events Rain    
T = Trace of Precipitation, MM = Missing Value Source: NWS Daily Summary

Daily Weather History Graph

Daily Weather History Graph

Search for Another Location

Airport or City:

Trip Planner

Search our weather history database for the weather conditions in past years. The results will help you decide how hot, cold, wet, or windy it might be!

Date:

Astronomy

Nov. 22, 2010 Rise Set
Actual Time 7:06 AM EST 4:24 PM EST
Civil Twilight 6:33 AM EST 4:56 PM EST
Nautical Twilight 5:57 AM EST 5:32 PM EST
Astronomical Twilight 5:22 AM EST 6:07 PM EST
Moon 4:59 PM EST (11/22) 8:10 AM EST (11/22)
Length of Visible Light 10h 23m
Length of Day
9h 18m
Full, 99% of the Moon is Illuminated
Nov 22
Full
Nov 28
Last Quarter
Dec 5
New
Dec 13
First Quarter
Dec 21
Full

Hourly Weather History & Observations

Time (EST) Temp. Windchill Dew Point Humidity Pressure Visibility Wind Dir Wind Speed Gust Speed Precip Events Conditions
12:53 AM 30.0 °F 22.4 °F 23.0 °F 75% 30.25 in 10.0 mi ENE 8.1 mph - 0.00 in   Overcast
1:53 AM 30.0 °F 23.2 °F 24.1 °F 79% 30.21 in 10.0 mi ENE 6.9 mph - N/A   Overcast
2:53 AM 30.9 °F 25.2 °F 25.0 °F 79% 30.19 in 10.0 mi NE 5.8 mph - 0.00 in   Overcast
3:53 AM 32.0 °F 28.7 °F 28.0 °F 85% 30.17 in 10.0 mi East 3.5 mph - 0.01 in Rain Light Freezing Rain
4:00 AM 32.0 °F 27.5 °F 28.4 °F 87% 30.14 in 10.0 mi East 4.6 mph - 0.02 in Rain Light Freezing Rain
4:15 AM 33.8 °F 28.6 °F 30.2 °F 87% 30.14 in 10.0 mi ENE 5.8 mph - 0.03 in Rain Light Freezing Rain
4:53 AM 33.1 °F 28.7 °F 30.0 °F 89% 30.15 in 10.0 mi ENE 4.6 mph - 0.04 in Rain Light Freezing Rain
5:46 AM 33.8 °F 30.8 °F 30.2 °F 87% 30.11 in 10.0 mi ENE 3.5 mph - 0.00 in   Overcast
5:53 AM 33.1 °F - 30.9 °F 92% 30.12 in 10.0 mi Calm Calm - 0.00 in   Overcast
6:53 AM 34.0 °F 31.0 °F 30.9 °F 89% 30.10 in 10.0 mi ENE 3.5 mph - 0.00 in   Overcast
7:53 AM 35.1 °F - 32.0 °F 89% 30.09 in 10.0 mi Calm Calm - N/A   Overcast
8:28 AM 35.6 °F 32.8 °F 33.8 °F 93% 30.07 in 10.0 mi ENE 3.5 mph - N/A   Overcast
8:53 AM 37.0 °F 33.3 °F 35.1 °F 93% 30.09 in 10.0 mi NE 4.6 mph - N/A   Overcast
9:53 AM 37.9 °F 34.4 °F 35.1 °F 89% 30.08 in 10.0 mi ENE 4.6 mph - N/A   Overcast
10:53 AM 39.9 °F - 37.0 °F 89% 30.06 in 10.0 mi Calm Calm - N/A   Overcast
11:53 AM 45.0 °F - 39.9 °F 82% 30.04 in 10.0 mi Calm Calm - N/A   Scattered Clouds
12:53 PM 48.0 °F - 42.1 °F 80% 30.03 in 10.0 mi Calm Calm - N/A   Mostly Cloudy
1:53 PM 52.0 °F - 46.9 °F 83% 30.01 in 10.0 mi SSW 9.2 mph - 0.00 in Rain Light Rain
2:28 PM 51.8 °F - 48.2 °F 88% 29.98 in 10.0 mi South 5.8 mph - 0.03 in Rain Light Rain
2:53 PM 52.0 °F - 48.9 °F 89% 30.00 in 10.0 mi Calm Calm - 0.04 in Rain Light Rain
3:53 PM 45.0 °F 42.6 °F 43.0 °F 93% 30.01 in 10.0 mi NNE 4.6 mph - 0.00 in   Overcast
4:53 PM 45.0 °F - 43.0 °F 93% 30.01 in 10.0 mi Calm Calm - N/A   Overcast
5:08 PM 44.6 °F - 42.8 °F 93% 30.00 in 10.0 mi Calm Calm - 0.00 in Rain Light Rain
5:53 PM 51.1 °F - 48.0 °F 89% 30.00 in 10.0 mi SSW 4.6 mph - 0.01 in   Overcast
6:53 PM 45.0 °F 41.2 °F 43.0 °F 93% 30.00 in 10.0 mi NE 6.9 mph - N/A   Overcast
7:53 PM 45.0 °F 43.5 °F 44.1 °F 97% 30.00 in 10.0 mi NE 3.5 mph - N/A   Overcast
8:22 PM 44.6 °F 42.2 °F 42.8 °F 93% 29.99 in 10.0 mi NNE 4.6 mph - N/A   Overcast
8:53 PM 44.1 °F 42.5 °F 42.1 °F 93% 29.99 in 10.0 mi NE 3.5 mph - N/A   Overcast
9:23 PM 44.6 °F 42.2 °F 42.8 °F 93% 29.97 in 10.0 mi ENE 4.6 mph - N/A   Overcast
9:53 PM 44.1 °F 41.5 °F 42.1 °F 93% 29.98 in 10.0 mi NE 4.6 mph - 0.01 in Rain Light Rain
10:53 PM 43.0 °F 41.3 °F 42.1 °F 97% 29.95 in 10.0 mi NE 3.5 mph - 0.01 in Rain Light Rain
11:53 PM 44.1 °F 42.5 °F 42.1 °F 93% 29.94 in 10.0 mi NE 3.5 mph - 0.00 in Rain Light Rain